TimeCST,TemperatureF,Dew PointF,Humidity,Sea Level PressureIn,VisibilityMPH,Wind Direction,Wind SpeedMPH,Gust SpeedMPH,PrecipitationIn,Events,Conditions,WindDirDegrees,DateUTC
12:15 AM,35.6,30.2,81,30.12,10.0,West,9.2,-,N/A,,Clear,260,2013-01-09 06:15:00
12:35 AM,35.6,30.2,81,30.13,10.0,WSW,9.2,-,N/A,,Clear,250,2013-01-09 06:35:00
12:55 AM,35.6,30.2,81,30.13,10.0,West,10.4,-,N/A,,Clear,260,2013-01-09 06:55:00
1:15 AM,33.8,30.2,87,30.14,10.0,West,9.2,-,N/A,,Clear,260,2013-01-09 07:15:00
1:35 AM,33.8,30.2,87,30.15,10.0,West,10.4,-,N/A,,Clear,270,2013-01-09 07:35:00
1:55 AM,35.6,30.2,81,30.17,10.0,WSW,10.4,-,N/A,,Clear,250,2013-01-09 07:55:00
2:15 AM,35.6,30.2,81,30.18,10.0,WSW,9.2,-,N/A,,Clear,250,2013-01-09 08:15:00
2:35 AM,35.6,30.2,81,30.19,10.0,WSW,10.4,-,N/A,,Clear,250,2013-01-09 08:35:00
2:55 AM,35.6,30.2,81,30.20,10.0,WSW,10.4,-,N/A,,Clear,250,2013-01-09 08:55:00
3:15 AM,35.6,30.2,81,30.21,10.0,WSW,11.5,-,N/A,,Clear,250,2013-01-09 09:15:00
3:35 AM,35.6,30.2,81,30.21,10.0,WSW,9.2,-,N/A,,Clear,240,2013-01-09 09:35:00
3:55 AM,35.6,30.2,81,30.22,10.0,WSW,10.4,-,N/A,,Clear,250,2013-01-09 09:55:00
4:15 AM,37.4,30.2,75,30.23,10.0,WSW,11.5,-,N/A,,Clear,240,2013-01-09 10:15:00
4:55 AM,35.6,30.2,81,30.24,10.0,West,11.5,-,N/A,,Clear,260,2013-01-09 10:55:00
5:15 AM,35.6,30.2,81,30.24,10.0,West,13.8,-,N/A,,Clear,260,2013-01-09 11:15:00
5:35 AM,35.6,30.2,81,30.24,10.0,WSW,13.8,-,N/A,,Clear,250,2013-01-09 11:35:00
6:15 AM,35.6,30.2,81,30.27,10.0,West,10.4,-,N/A,,Clear,260,2013-01-09 12:15:00
6:35 AM,33.8,30.2,87,30.27,10.0,West,10.4,-,N/A,,Clear,270,2013-01-09 12:35:00
6:55 AM,32.0,28.4,87,30.29,10.0,WSW,8.1,-,N/A,,Clear,250,2013-01-09 12:55:00
7:35 AM,32.0,28.4,87,30.32,10.0,West,6.9,-,N/A,,Clear,270,2013-01-09 13:35:00
7:55 AM,32.0,28.4,87,30.32,10.0,West,8.1,-,N/A,,Clear,270,2013-01-09 13:55:00
8:15 AM,32.0,30.2,93,30.33,10.0,West,6.9,-,N/A,,Clear,260,2013-01-09 14:15:00
8:35 AM,35.6,30.2,81,30.35,10.0,WSW,6.9,-,N/A,,Clear,250,2013-01-09 14:35:00
8:55 AM,35.6,32.0,87,30.36,10.0,West,6.9,-,N/A,,Clear,280,2013-01-09 14:55:00
9:15 AM,37.4,32.0,81,30.37,10.0,WNW,8.1,-,N/A,,Clear,290,2013-01-09 15:15:00
9:35 AM,39.2,32.0,75,30.40,10.0,WNW,8.1,-,N/A,,Clear,290,2013-01-09 15:35:00
10:15 AM,41.0,32.0,70,30.43,10.0,WNW,9.2,-,N/A,,Clear,290,2013-01-09 16:15:00
10:55 AM,44.6,32.0,61,30.43,10.0,WNW,8.1,-,N/A,,Clear,300,2013-01-09 16:55:00
11:35 AM,46.4,32.0,57,30.42,10.0,WNW,11.5,-,N/A,,Clear,300,2013-01-09 17:35:00
12:35 PM,50.0,30.2,47,30.41,10.0,NW,6.9,-,N/A,,Clear,310,2013-01-09 18:35:00
12:55 PM,50.0,26.6,40,30.40,10.0,WNW,9.2,-,N/A,,Clear,290,2013-01-09 18:55:00
1:15 PM,50.0,24.8,37,30.40,10.0,NW,9.2,-,N/A,,Clear,310,2013-01-09 19:15:00
1:35 PM,51.8,24.8,35,30.39,10.0,North,9.2,-,N/A,,Clear,350,2013-01-09 19:35:00
1:55 PM,51.8,24.8,35,30.38,10.0,North,8.1,-,N/A,,Clear,350,2013-01-09 19:55:00
2:15 PM,50.0,24.8,37,30.38,10.0,North,6.9,-,N/A,,Clear,350,2013-01-09 20:15:00
2:35 PM,50.0,24.8,37,30.39,10.0,North,9.2,-,N/A,,Clear,350,2013-01-09 20:35:00
2:55 PM,50.0,26.6,40,30.39,10.0,NNW,6.9,-,N/A,,Clear,330,2013-01-09 20:55:00
3:15 PM,50.0,24.8,37,30.40,10.0,North,4.6,-,N/A,,Clear,360,2013-01-09 21:15:00
3:35 PM,50.0,26.6,40,30.41,10.0,NNE,3.5,-,N/A,,Clear,20,2013-01-09 21:35:00
3:55 PM,48.2,24.8,40,30.41,10.0,Calm,Calm,-,N/A,,Clear,0,2013-01-09 21:55:00
4:15 PM,48.2,23.0,37,30.41,10.0,Calm,Calm,-,N/A,,Clear,0,2013-01-09 22:15:00
4:35 PM,48.2,23.0,37,30.41,10.0,ENE,3.5,-,N/A,,Clear,70,2013-01-09 22:35:00
4:55 PM,46.4,21.2,37,30.41,10.0,ENE,3.5,-,N/A,,Clear,60,2013-01-09 22:55:00
5:15 PM,46.4,23.0,40,30.41,10.0,ENE,3.5,-,N/A,,Clear,70,2013-01-09 23:15:00
5:35 PM,44.6,23.0,43,30.41,10.0,ENE,3.5,-,N/A,,Clear,70,2013-01-09 23:35:00
5:55 PM,42.8,23.0,46,30.41,10.0,ESE,3.5,-,N/A,,Clear,110,2013-01-09 23:55:00
6:15 PM,42.8,23.0,46,30.41,10.0,East,4.6,-,N/A,,Clear,100,2013-01-10 00:15:00
6:35 PM,41.0,23.0,49,30.41,10.0,East,4.6,-,N/A,,Clear,100,2013-01-10 00:35:00
6:55 PM,41.0,21.2,45,30.42,10.0,ESE,5.8,-,N/A,,Clear,120,2013-01-10 00:55:00
7:15 PM,39.2,23.0,52,30.44,10.0,ESE,4.6,-,N/A,,Clear,120,2013-01-10 01:15:00
7:35 PM,37.4,23.0,56,30.43,10.0,ESE,5.8,-,N/A,,Clear,110,2013-01-10 01:35:00
8:15 PM,37.4,23.0,56,30.43,10.0,East,6.9,-,N/A,,Clear,100,2013-01-10 02:15:00
8:35 PM,37.4,23.0,56,30.43,10.0,ESE,6.9,-,N/A,,Clear,110,2013-01-10 02:35:00
8:55 PM,37.4,23.0,56,30.43,10.0,ESE,6.9,-,N/A,,Clear,120,2013-01-10 02:55:00
9:15 PM,35.6,23.0,60,30.43,10.0,ESE,6.9,-,N/A,,Clear,120,2013-01-10 03:15:00
9:35 PM,35.6,23.0,60,30.43,10.0,ESE,6.9,-,N/A,,Clear,120,2013-01-10 03:35:00
9:55 PM,35.6,23.0,60,30.43,10.0,ESE,5.8,-,N/A,,Clear,120,2013-01-10 03:55:00
10:15 PM,35.6,24.8,65,30.43,10.0,ESE,8.1,-,N/A,,Clear,120,2013-01-10 04:15:00
10:35 PM,35.6,24.8,65,30.43,10.0,ESE,8.1,-,N/A,,Clear,120,2013-01-10 04:35:00
10:55 PM,35.6,24.8,65,30.42,10.0,ESE,9.2,-,N/A,,Clear,120,2013-01-10 04:55:00
11:35 PM,35.6,26.6,70,30.41,10.0,ESE,6.9,-,N/A,,Clear,120,2013-01-10 05:35:00
11:55 PM,35.6,26.6,70,30.40,10.0,ESE,5.8,-,N/A,,Clear,120,2013-01-10 05:55:00